QPF
0.00 0.00 0.00 0.00 0.00 0.00 0.00 0.00 0.00 0.00 0.00 0.00 0.00 0.00 0.00 0.00 0.00 0.00 0.00 0.00 0.00 0.00 0.00 0.00 0.00 0.00 0.00 0.00 0.00 0.00 0.00 0.00 0.00 0.00 0.01 0.02 0.00 0.00 0.00 0.00 0.00 0.00 0.00
0.00 0.00 0.00 0.00 0.00 0.00 0.00 0.00 0.00 0.00 0.00 0.00 0.00 0.00 0.00 0.00 0.00 0.00 0.00 0.00 0.00 0.00 0.00 0.00 0.00 0.00 0.00 0.00 0.00 0.00 0.00 0.00 0.00 0.01 0.02 0.03 0.00 0.00 0.00 0.00 0.00 0.00 0.00
0.00 0.01 0.00 0.00 0.00 0.00 0.00 0.00 0.00 0.00 0.00 0.00 0.00 0.00 0.00 0.00 0.00 0.00 0.00 0.00 0.00 0.00 0.00 0.00 0.00 0.00 0.00 0.00 0.00 0.00 0.00 0.00 0.00 0.01 0.00 0.00 0.00 0.00 0.00 0.00 0.00 0.00 0.00
0.00 0.00 0.00 0.00 0.00 0.00 0.00 0.00 0.00 0.00 0.00 0.00 0.00 0.00 0.00 0.00 0.00 0.00 0.00 0.00 0.00 0.00 0.00 0.00 0.00 0.00 0.00 0.00 0.00 0.00 0.00 0.00 0.00 0.00 0.00 0.00 0.00 0.00 0.00 0.00 0.00 0.00 0.00
0.00 0.00 0.01 0.05 0.00 0.00 0.00 0.00 0.00 0.00 0.00 0.00 0.00 0.00 0.00 0.00 0.00 0.00 0.00 0.00 0.00 0.00 0.00 0.00 0.00 0.00 0.00 0.00 0.00 0.00 0.00 0.00 0.00 0.00 0.00 0.00 0.00 0.00 0.00 0.00 0.00 0.00 0.00
0.01 0.04 0.07 0.18 0.03 0.00 0.00 0.00 0.00 0.00 0.00 0.00 0.00 0.00 0.00 0.00 0.00 0.00 0.00 0.00 0.00 0.00 0.00 0.00 0.00 0.00 0.00 0.00 0.00 0.00 0.00 0.00 0.00 0.00 0.00 0.00 0.00 0.00 0.00 0.00 0.00 0.00 0.00
0.15 0.23 0.33 0.27 0.14 0.08 0.02 0.01 0.00 0.00 0.00 0.00 0.00 0.00 0.00 0.00 0.00 0.00 0.00 0.00 0.00 0.00 0.00 0.00 0.00 0.00 0.00 0.00 0.00 0.00 0.00 0.00 0.00 0.00 0.00 0.00 0.00 0.00 0.00 0.00 0.00 0.00 0.00
0.12 0.13 0.25 0.30 0.36 0.27 0.09 0.01 0.00 0.00 0.00 0.00 0.00 0.00 0.00 0.00 0.00 0.00 0.00 0.00 0.00 0.00 0.00 0.00 0.00 0.00 0.00 0.00 0.00 0.00 0.00 0.00 0.00 0.00 0.00 0.00 0.00 0.00 0.00 0.00 0.00 0.00 0.00
0.12 0.08 0.26 0.36 0.43 0.22 0.00 0.00 0.00 0.00 0.00 0.00 0.00 0.00 0.00 0.00 0.00 0.00 0.00 0.00 0.00 0.00 0.00 0.00 0.00 0.00 0.00 0.00 0.00 0.00 0.00 0.00 0.00 0.00 0.00 0.00 0.00 0.00 0.00 0.00 0.00 0.00 0.00
0.17 0.19 0.18 0.15 0.19 0.07 0.00 0.00 0.00 0.00 0.00 0.00 0.00 0.00 0.00 0.00 0.00 0.00 0.00 0.00 0.00 0.00 0.00 0.00 0.00 0.00 0.00 0.00 0.00 0.00 0.00 0.00 0.00 0.00 0.00 0.00 0.00 0.00 0.00 0.00 0.00 0.00 0.00
0.76 1.42 0.51 0.16 0.24 0.10 0.00 0.00 0.00 0.00 0.00 0.00 0.00 0.00 0.00 0.00 0.00 0.00 0.00 0.00 0.00 0.00 0.00 0.00 0.00 0.00 0.00 0.00 0.00 0.00 0.00 0.00 0.00 0.00 0.00 0.00 0.00 0.00 0.00 0.00 0.00 0.00 0.00
0.40 0.65 0.42 0.24 0.12 0.01 0.00 0.00 0.00 0.00 0.00 0.00 0.00 0.00 0.00 0.00 0.00 0.00 0.00 0.00 0.00 0.00 0.00 0.00 0.00 0.00 0.00 0.00 0.00 0.00 0.00 0.00 0.00 0.00 0.00 0.00 0.00 0.00 0.00 0.00 0.00 0.00 0.00
0.48 0.27 0.23 0.15 0.10 0.00 0.00 0.00 0.00 0.00 0.00 0.00 0.00 0.00 0.00 0.00 0.00 0.00 0.00 0.00 0.00 0.00 0.00 0.00 0.00 0.00 0.00 0.00 0.00 0.00 0.00 0.00 0.00 0.00 0.00 0.00 0.00 0.00 0.00 0.00 0.00 0.00 0.00
0.13 0.11 0.12 0.11 0.02 0.00 0.00 0.00 0.00 0.00 0.00 0.00 0.00 0.00 0.00 0.00 0.00 0.00 0.00 0.00 0.00 0.00 0.00 0.00 0.00 0.00 0.00 0.00 0.00 0.00 0.00 0.00 0.00 0.00 0.00 0.00 0.00 0.00 0.00 0.00 0.00 0.00 0.00
0.02 0.04 0.06 0.02 0.00 0.00 0.00 0.00 0.00 0.00 0.00 0.00 0.00 0.00 0.00 0.00 0.00 0.00 0.00 0.00 0.00 0.00 0.00 0.00 0.00 0.00 0.00 0.00 0.00 0.00 0.00 0.00 0.00 0.00 0.00 0.00 0.00 0.00 0.00 0.00 0.00 0.00 0.00
0.00 0.01 0.01 0.00 0.00 0.00 0.00 0.00 0.00 0.00 0.00 0.00 0.00 0.00 0.00 0.00 0.00 0.00 0.00 0.00 0.00 0.00 0.00 0.00 0.00 0.00 0.00 0.00 0.00 0.00 0.00 0.00 0.00 0.00 0.00 0.00 0.00 0.00 0.00 0.00 0.00 0.00 0.00
0.00 0.00 0.00 0.00 0.00 0.00 0.00 0.00 0.00 0.00 0.00 0.00 0.00 0.00 0.00 0.00 0.00 0.00 0.00 0.00 0.00 0.00 0.00 0.00 0.00 0.00 0.00 0.00 0.00 0.00 0.00 0.00 0.00 0.00 0.00 0.00 0.00 0.00 0.00 0.00 0.00 0.00 0.00
0.00 0.00 0.00 0.00 0.00 0.00 0.00 0.00 0.00 0.00 0.00 0.01 0.00 0.00 0.00 0.00 0.00 0.00 0.00 0.00 0.00 0.00 0.00 0.00 0.00 0.00 0.00 0.00 0.00 0.00 0.00 0.00 0.00 0.00 0.00 0.00 0.00 0.00 0.00 0.00 0.00 0.00 0.00
0.00 0.00 0.00 0.00 0.00 0.00 0.00 0.00 0.00 0.00 0.00 0.00 0.00 0.00 0.00 0.00 0.00 0.00 0.00 0.00 0.00 0.00 0.00 0.00 0.00 0.00 0.00 0.00 0.00 0.00 0.00 0.00 0.00 0.00 0.00 0.00 0.00 0.00 0.00 0.00 0.00 0.00 0.00
0.00 0.00 0.00 0.00 0.00 0.00 0.00 0.00 0.00 0.00 0.00 0.00 0.00 0.00 0.00 0.00 0.00 0.00 0.00 0.00 0.00 0.00 0.00 0.00 0.00 0.00 0.00 0.00 0.00 0.00 0.00 0.00 0.00 0.00 0.00 0.00 0.00 0.00 0.00 0.00 0.00 0.00 0.00
0.00 0.00 0.00 0.00 0.00 0.00 0.00 0.00 0.00 0.00 0.00 0.00 0.00 0.00 0.00 0.00 0.00 0.00 0.00 0.00 0.00 0.00 0.00 0.00 0.00 0.00 0.00 0.00 0.00 0.00 0.00 0.00 0.00 0.00 0.00 0.00 0.00 0.00 0.00 0.00 0.00 0.00 0.00
0.00 0.00 0.00 0.00 0.00 0.00 0.00 0.00 0.00 0.00 0.00 0.00 0.00 0.00 0.00 0.00 0.00 0.00 0.00 0.00 0.00 0.00 0.00 0.00 0.00 0.00 0.00 0.00 0.00 0.00 0.00 0.00 0.00 0.00 0.00 0.00 0.00 0.00 0.00 0.00 0.00 0.00 0.00
0.00 0.00 0.00 0.00 0.01 0.01 0.02 0.02 0.02 0.00 0.00 0.00 0.00 0.00 0.00 0.00 0.00 0.00 0.00 0.00 0.00 0.00 0.00 0.00 0.00 0.00 0.00 0.00 0.00 0.00 0.00 0.00 0.00 0.00 0.00 0.00 0.00 0.00 0.00 0.00 0.00 0.00 0.00
0.00 0.00 0.00 0.03 0.07 0.06 0.06 0.09 0.04 0.00 0.00 0.00 0.00 0.00 0.00 0.00 0.00 0.00 0.00 0.00 0.00 0.00 0.00 0.00 0.00 0.00 0.00 0.00 0.00 0.00 0.00 0.00 0.00 0.00 0.00 0.00 0.00 0.00 0.00 0.00 0.00 0.00 0.00
0.03 0.01 0.01 0.08 0.09 0.04 0.05 0.04 0.00 0.00 0.00 0.00 0.00 0.00 0.00 0.00 0.00 0.00 0.00 0.00 0.00 0.00 0.00 0.00 0.00 0.00 0.00 0.00 0.00 0.00 0.00 0.00 0.00 0.00 0.00 0.00 0.00 0.00 0.00 0.00 0.00 0.00 0.00
0.07 0.10 0.09 0.08 0.04 0.02 0.03 0.00 0.00 0.00 0.00 0.00 0.00 0.00 0.00 0.00 0.00 0.00 0.00 0.00 0.00 0.00 0.00 0.00 0.00 0.00 0.00 0.00 0.00 0.00 0.00 0.00 0.00 0.00 0.00 0.00 0.00 0.00 0.00 0.00 0.00 0.00 0.00
MSLP
1013.50 1013.75 1013.96 1014.15 1014.22 1014.49 1014.78 1015.46 1015.93 1016.38 1016.73 1017.14 1017.43 1017.62 1017.55 1017.77 1017.94 1018.27 1018.12 1018.27 1018.58 1018.59 1018.63 1018.84 1018.83 1018.88 1018.87 1019.10 1018.92 1019.19 1019.24 1019.51 1019.39 1019.25 1019.27 1019.22 1019.27 1019.31 1019.42 1019.55 1019.31 1019.54 1019.47
1012.79 1013.56 1013.92 1014.12 1014.28 1014.57 1014.78 1015.33 1016.37 1016.90 1016.95 1017.49 1017.79 1017.80 1017.89 1017.94 1018.09 1018.26 1018.27 1018.38 1018.57 1018.72 1018.84 1019.12 1019.23 1019.16 1019.04 1019.32 1019.03 1019.08 1019.43 1019.60 1019.71 1019.68 1019.87 1019.82 1019.75 1019.86 1019.89 1019.81 1019.79 1020.00 1019.82
1013.24 1013.69 1014.11 1014.24 1014.31 1014.76 1015.11 1015.28 1015.98 1016.98 1017.26 1017.71 1018.02 1017.82 1017.83 1017.97 1018.27 1018.45 1018.54 1018.72 1018.92 1018.95 1019.09 1019.50 1019.74 1019.52 1019.20 1019.25 1019.10 1019.00 1019.68 1019.71 1019.90 1020.03 1020.13 1020.25 1020.16 1020.19 1020.27 1020.20 1020.33 1020.42 1020.27
1013.38 1014.06 1014.38 1014.55 1014.58 1014.78 1015.31 1015.30 1016.54 1016.79 1017.59 1017.96 1018.12 1018.05 1018.10 1018.30 1018.50 1018.62 1018.86 1019.12 1019.19 1019.24 1019.41 1019.53 1019.65 1019.77 1019.58 1019.32 1019.46 1019.57 1019.83 1020.17 1020.30 1020.50 1020.68 1020.68 1020.46 1020.53 1020.48 1020.32 1020.65 1020.66 1020.66
1013.65 1014.04 1014.66 1014.80 1015.07 1015.20 1015.82 1015.49 1016.76 1017.22 1017.72 1018.15 1018.24 1018.07 1018.24 1018.73 1018.60 1018.72 1019.12 1019.44 1019.47 1019.61 1019.58 1019.77 1019.97 1020.04 1020.03 1019.86 1019.95 1020.23 1020.39 1020.58 1020.88 1021.02 1021.17 1021.06 1020.95 1020.95 1020.83 1020.65 1020.95 1021.04 1020.83
1013.88 1014.38 1014.96 1015.18 1015.61 1015.79 1015.38 1016.45 1016.58 1017.58 1017.81 1018.41 1018.44 1018.26 1018.51 1018.78 1018.87 1018.97 1019.35 1019.67 1019.73 1019.76 1019.72 1020.09 1020.48 1020.27 1020.51 1020.33 1020.53 1020.68 1020.88 1020.83 1021.16 1021.38 1021.49 1021.42 1021.42 1021.30 1021.12 1020.97 1021.18 1021.40 1021.22
1014.20 1014.70 1015.09 1015.55 1016.05 1016.15 1016.23 1016.56 1017.16 1017.35 1018.07 1018.54 1018.59 1018.60 1018.72 1019.01 1019.23 1019.26 1019.64 1019.99 1020.06 1020.20 1020.26 1020.54 1020.71 1020.87 1021.02 1020.87 1020.92 1020.92 1021.13 1021.22 1021.64 1021.74 1021.90 1021.85 1021.50 1021.49 1021.45 1021.33 1021.49 1021.58 1021.62
1014.60 1015.13 1015.49 1015.79 1016.28 1016.35 1016.39 1016.86 1017.16 1017.85 1018.35 1018.54 1018.86 1019.03 1019.17 1019.55 1019.66 1019.75 1020.09 1020.27 1020.45 1020.56 1020.70 1020.92 1020.89 1021.13 1021.50 1021.38 1021.18 1021.20 1021.44 1021.67 1021.98 1022.05 1022.07 1022.22 1021.84 1021.79 1021.81 1021.89 1021.72 1021.84 1021.84
1015.36 1015.66 1016.57 1015.91 1016.91 1017.00 1016.97 1017.41 1017.69 1018.38 1018.69 1018.64 1019.04 1019.38 1019.72 1020.15 1020.18 1020.27 1020.46 1020.53 1020.80 1020.95 1020.91 1021.05 1021.25 1021.38 1021.45 1021.73 1021.39 1021.60 1021.86 1022.20 1022.37 1022.34 1022.20 1022.25 1022.15 1021.86 1022.02 1022.16 1022.20 1022.10 1022.18
1016.25 1016.34 1016.74 1017.26 1017.30 1016.91 1017.37 1017.59 1018.14 1018.58 1018.87 1019.26 1019.34 1019.62 1020.09 1020.46 1020.50 1020.51 1020.69 1020.88 1021.18 1021.44 1021.39 1021.41 1021.55 1021.61 1021.60 1021.76 1021.92 1022.02 1022.05 1022.43 1022.57 1022.79 1022.48 1022.38 1022.29 1022.34 1022.14 1022.25 1022.37 1022.19 1022.21
1016.89 1016.71 1016.86 1017.25 1017.46 1017.80 1017.97 1018.37 1018.72 1019.20 1019.60 1019.59 1019.60 1020.03 1020.61 1020.89 1020.92 1020.97 1021.14 1021.02 1021.36 1021.41 1021.68 1021.66 1021.73 1021.93 1021.91 1022.15 1022.49 1022.48 1022.56 1022.95 1022.98 1023.07 1022.90 1022.51 1022.39 1022.22 1022.41 1022.56 1022.58 1022.57 1022.44
1017.31 1017.84 1018.07 1018.09 1018.00 1018.12 1018.31 1018.62 1018.90 1019.17 1019.57 1019.72 1020.07 1020.59 1020.91 1021.03 1021.27 1021.14 1021.22 1021.35 1021.51 1021.79 1021.84 1021.92 1021.95 1022.26 1022.62 1022.53 1022.90 1022.96 1023.17 1023.48 1023.45 1023.41 1023.22 1023.02 1022.56 1022.48 1022.63 1022.73 1022.89 1022.74 1022.73
1017.26 1018.23 1018.42 1018.29 1018.07 1018.33 1018.52 1019.20 1019.54 1019.75 1019.74 1020.00 1020.23 1020.73 1021.02 1021.25 1021.31 1021.52 1021.52 1021.74 1021.82 1022.31 1022.34 1022.41 1022.55 1023.01 1022.99 1023.28 1023.38 1023.59 1023.65 1023.75 1023.87 1023.82 1023.61 1023.33 1022.90 1022.60 1022.75 1022.89 1023.11 1023.07 1023.05
1018.23 1018.26 1018.78 1018.08 1018.29 1018.74 1019.05 1019.46 1019.70 1019.98 1019.87 1020.09 1020.44 1020.59 1021.21 1021.36 1021.58 1022.01 1022.05 1022.25 1022.45 1022.75 1022.92 1023.07 1023.27 1023.61 1023.57 1023.72 1023.80 1024.09 1024.12 1024.15 1024.23 1024.17 1024.02 1023.48 1023.18 1022.82 1022.73 1022.92 1023.23 1023.26 1023.16
1017.97 1017.87 1018.65 1018.25 1018.80 1018.89 1019.46 1019.79 1019.83 1019.74 1020.01 1020.16 1020.49 1020.66 1021.17 1021.48 1021.95 1022.12 1022.55 1022.64 1023.00 1023.32 1023.48 1023.55 1023.77 1024.16 1024.28 1024.30 1024.52 1024.68 1024.64 1024.55 1024.58 1024.49 1024.20 1023.80 1023.36 1023.04 1022.94 1023.03 1023.26 1023.32 1023.38
1018.10 1018.46 1018.57 1018.67 1018.91 1018.99 1019.44 1019.73 1019.83 1019.86 1020.01 1020.39 1020.53 1021.10 1021.21 1021.56 1022.07 1022.54 1022.86 1023.23 1023.50 1023.70 1023.84 1023.95 1024.27 1024.62 1024.88 1024.90 1024.89 1024.90 1025.05 1025.09 1025.06 1024.88 1024.51 1024.25 1023.61 1023.26 1023.20 1023.33 1023.46 1023.53 1023.59
1017.99 1018.02 1018.20 1018.36 1018.61 1018.91 1019.39 1019.60 1020.04 1019.85 1020.25 1020.40 1021.06 1021.22 1021.61 1022.06 1022.23 1022.74 1023.18 1023.65 1023.83 1024.10 1024.15 1024.29 1024.79 1024.92 1024.76 1024.72 1025.05 1025.29 1025.49 1025.56 1025.35 1025.11 1024.76 1024.43 1024.17 1023.96 1023.81 1023.84 1023.74 1023.74 1023.80
1017.33 1017.63 1018.01 1018.36 1018.69 1019.16 1019.53 1019.81 1019.93 1020.30 1020.66 1020.83 1021.15 1021.58 1021.95 1022.22 1022.47 1023.03 1023.41 1023.86 1024.13 1024.15 1024.40 1024.65 1024.82 1024.95 1025.19 1025.45 1025.66 1025.88 1025.97 1025.83 1025.62 1025.45 1025.22 1024.98 1024.77 1024.70 1024.56 1024.34 1024.09 1024.11 1024.04
1017.17 1017.55 1017.92 1018.35 1018.86 1019.58 1019.62 1020.09 1020.38 1020.74 1021.11 1021.32 1021.60 1022.01 1022.24 1022.51 1022.90 1023.29 1023.54 1023.87 1024.02 1024.32 1024.44 1024.56 1025.14 1025.28 1025.76 1025.98 1026.01 1026.13 1026.26 1026.16 1025.90 1025.61 1025.55 1025.38 1025.20 1025.16 1025.02 1024.72 1024.60 1024.53 1024.25
1017.26 1017.69 1017.99 1018.54 1019.07 1019.61 1020.12 1020.53 1020.89 1021.35 1021.60 1021.73 1021.98 1022.22 1022.29 1022.75 1023.04 1023.33 1023.54 1023.86 1024.08 1024.45 1024.91 1025.00 1025.40 1025.81 1026.06 1026.08 1026.18 1026.23 1026.26 1026.30 1025.97 1025.91 1025.78 1025.65 1025.59 1025.56 1025.37 1025.17 1025.01 1024.85 1024.45
1017.39 1017.85 1018.32 1018.60 1019.32 1019.79 1020.39 1020.86 1021.34 1021.64 1021.93 1021.96 1022.19 1022.26 1022.49 1022.79 1022.97 1023.21 1023.65 1023.97 1024.20 1024.53 1024.91 1025.10 1025.57 1025.89 1026.17 1026.29 1026.53 1026.56 1026.36 1026.34 1026.15 1026.15 1025.90 1025.95 1025.72 1025.61 1025.51 1025.45 1025.27 1025.11 1024.90
1017.26 1017.86 1018.56 1018.76 1019.35 1019.75 1019.93 1020.42 1020.63 1021.29 1021.71 1021.94 1022.35 1022.51 1022.49 1022.59 1022.92 1023.21 1023.56 1023.99 1024.27 1024.71 1025.08 1025.24 1025.50 1026.03 1026.26 1026.30 1026.66 1027.06 1027.03 1026.76 1026.36 1026.08 1026.05 1025.99 1025.95 1025.97 1025.69 1025.51 1025.38 1025.23 1025.11
1016.86 1017.26 1018.04 1018.47 1019.12 1019.33 1019.84 1020.20 1020.75 1021.28 1021.89 1022.51 1022.63 1022.60 1022.58 1022.66 1022.90 1023.26 1023.74 1024.22 1024.58 1024.84 1025.30 1025.47 1025.61 1025.96 1026.31 1026.41 1026.44 1026.72 1027.14 1027.25 1026.92 1026.34 1026.19 1026.04 1025.98 1026.01 1025.84 1025.68 1025.37 1025.19 1025.02
1016.08 1016.91 1017.49 1018.12 1018.72 1019.13 1019.59 1020.21 1020.58 1020.85 1021.74 1022.04 1022.19 1022.43 1022.70 1022.83 1023.08 1023.52 1023.99 1024.27 1024.68 1025.17 1025.37 1025.37 1025.57 1025.94 1026.26 1026.55 1026.57 1026.42 1026.48 1026.72 1027.00 1026.94 1026.38 1026.04 1026.05 1026.04 1026.04 1025.82 1025.56 1025.20 1025.00
1016.41 1016.96 1017.35 1017.98 1018.44 1018.83 1019.29 1019.84 1020.46 1020.88 1021.32 1021.71 1022.26 1022.67 1023.06 1023.42 1023.70 1023.96 1024.29 1025.13 1025.11 1025.28 1025.44 1025.49 1025.67 1025.97 1026.29 1026.57 1026.72 1026.66 1026.68 1026.74 1026.82 1027.12 1026.78 1026.48 1026.07 1025.76 1025.53 1025.56 1025.52 1025.31 1024.93
1016.30 1016.97 1017.47 1017.91 1018.31 1018.75 1019.09 1019.67 1020.07 1020.68 1021.33 1021.96 1022.45 1023.13 1023.48 1023.80 1024.15 1024.43 1024.50 1024.88 1025.07 1024.93 1025.17 1025.63 1025.83 1025.91 1026.12 1026.31 1026.34 1026.38 1026.51 1026.58 1026.54 1026.68 1026.71 1026.21 1026.06 1025.83 1025.46 1025.23 1025.27 1025.17 1024.96
Thickness
5721 5720 5719 5717 5716 5713 5710 5705 5700 5696 5693 5688 5686 5684 5686 5685 5683 5679 5681 5680 5676 5676 5675 5674 5675 5674 5673 5669 5669 5665 5663 5659 5658 5658 5655 5655 5653 5652 5650 5648 5650 5646 5645
5723 5718 5716 5715 5712 5709 5707 5701 5690 5685 5686 5681 5679 5679 5679 5680 5679 5679 5679 5679 5677 5674 5672 5671 5670 5670 5669 5665 5666 5665 5660 5657 5654 5653 5650 5649 5650 5647 5644 5644 5643 5640 5640
5717 5713 5710 5709 5708 5703 5700 5697 5689 5680 5679 5676 5673 5675 5677 5678 5676 5676 5676 5675 5672 5671 5669 5665 5662 5665 5667 5665 5665 5663 5656 5654 5651 5647 5646 5645 5645 5643 5641 5640 5636 5634 5635
5708 5703 5701 5700 5699 5697 5693 5692 5680 5679 5672 5670 5668 5671 5672 5673 5673 5674 5673 5671 5669 5668 5664 5663 5663 5661 5662 5662 5659 5656 5653 5648 5646 5642 5640 5639 5639 5637 5636 5637 5632 5631 5629
5701 5698 5693 5690 5690 5688 5684 5686 5675 5671 5668 5665 5665 5668 5669 5667 5673 5673 5670 5667 5665 5662 5661 5659 5659 5657 5657 5657 5653 5648 5646 5644 5640 5637 5635 5635 5633 5631 5630 5631 5627 5625 5626
5695 5690 5685 5681 5677 5676 5681 5672 5672 5664 5664 5659 5659 5664 5665 5666 5669 5670 5666 5663 5662 5660 5660 5655 5652 5654 5649 5650 5644 5641 5638 5639 5635 5632 5629 5627 5625 5625 5626 5626 5621 5618 5619
5689 5682 5676 5672 5667 5666 5667 5665 5661 5660 5657 5654 5655 5657 5662 5661 5663 5665 5661 5657 5656 5655 5653 5648 5645 5644 5641 5641 5638 5636 5633 5632 5627 5625 5622 5620 5621 5619 5618 5619 5615 5612 5610
5682 5675 5668 5666 5660 5658 5659 5658 5655 5652 5651 5649 5648 5652 5654 5654 5656 5657 5655 5654 5651 5650 5646 5641 5639 5635 5632 5630 5629 5629 5625 5621 5618 5617 5616 5612 5613 5612 5611 5608 5609 5606 5604
5670 5667 5652 5657 5651 5645 5652 5651 5649 5644 5642 5643 5646 5645 5646 5646 5648 5650 5650 5649 5645 5643 5642 5638 5634 5630 5625 5623 5623 5620 5616 5612 5610 5609 5608 5607 5604 5605 5602 5600 5598 5598 5595
5658 5656 5651 5648 5649 5647 5648 5645 5641 5638 5636 5636 5640 5644 5644 5643 5644 5646 5643 5641 5638 5635 5632 5630 5626 5623 5620 5618 5615 5612 5611 5604 5603 5598 5601 5600 5597 5595 5595 5591 5589 5590 5588
5647 5644 5640 5643 5641 5638 5636 5633 5632 5629 5628 5634 5641 5642 5639 5639 5641 5641 5637 5637 5633 5631 5625 5624 5620 5615 5614 5610 5606 5603 5601 5596 5594 5591 5590 5590 5588 5589 5586 5582 5579 5578 5579
5639 5631 5630 5628 5631 5631 5630 5630 5631 5630 5630 5635 5639 5637 5635 5636 5634 5635 5633 5631 5628 5623 5620 5617 5615 5610 5604 5604 5597 5594 5591 5586 5584 5582 5581 5578 5579 5576 5574 5572 5569 5568 5566
5632 5625 5625 5627 5627 5630 5631 5625 5625 5627 5633 5634 5637 5633 5633 5631 5630 5628 5627 5624 5622 5613 5612 5609 5607 5600 5599 5594 5591 5586 5582 5579 5576 5574 5571 5568 5568 5566 5564 5562 5558 5557 5555
5625 5625 5621 5627 5628 5625 5625 5625 5627 5628 5635 5636 5634 5634 5628 5627 5626 5620 5619 5616 5612 5607 5605 5602 5598 5592 5591 5586 5583 5578 5575 5573 5568 5565 5562 5562 5560 5559 5556 5552 5548 5547 5548
5625 5625 5617 5625 5619 5623 5624 5627 5628 5632 5631 5633 5632 5631 5624 5623 5618 5616 5611 5609 5604 5599 5597 5595 5591 5584 5581 5578 5572 5568 5565 5563 5558 5555 5555 5553 5551 5550 5547 5544 5539 5538 5536
5621 5620 5623 5626 5625 5628 5626 5627 5628 5630 5632 5629 5630 5622 5622 5618 5614 5608 5606 5601 5598 5593 5590 5588 5582 5576 5571 5566 5563 5559 5554 5550 5547 5546 5545 5542 5542 5539 5536 5533 5530 5528 5526
5623 5628 5629 5629 5630 5630 5626 5627 5625 5631 5628 5629 5621 5620 5615 5610 5610 5604 5601 5595 5592 5587 5584 5580 5572 5567 5565 5561 5556 5549 5543 5538 5537 5535 5534 5531 5528 5525 5522 5519 5517 5516 5513
5636 5635 5632 5632 5630 5626 5625 5626 5627 5624 5621 5621 5617 5612 5608 5606 5604 5598 5594 5589 5584 5582 5577 5571 5566 5561 5555 5549 5543 5536 5530 5527 5524 5522 5520 5518 5515 5510 5507 5505 5504 5502 5501
5636 5636 5634 5630 5629 5624 5625 5622 5620 5617 5615 5613 5610 5606 5604 5602 5596 5591 5588 5584 5580 5574 5569 5563 5555 5550 5542 5536 5532 5525 5519 5515 5512 5509 5505 5501 5498 5494 5492 5490 5489 5487 5487
5635 5633 5632 5629 5626 5621 5618 5616 5613 5609 5607 5607 5606 5602 5601 5594 5591 5587 5583 5578 5572 5566 5557 5552 5545 5538 5531 5526 5521 5514 5508 5503 5501 5496 5492 5488 5483 5479 5477 5476 5475 5473 5473
5632 5631 5627 5625 5621 5618 5613 5609 5606 5605 5603 5605 5600 5597 5593 5589 5586 5583 5576 5569 5563 5556 5549 5542 5534 5528 5520 5514 5506 5501 5496 5491 5488 5483 5480 5474 5469 5465 5462 5460 5459 5458 5457
5631 5627 5619 5620 5616 5614 5615 5611 5611 5605 5603 5599 5593 5590 5589 5586 5580 5574 5567 5560 5554 5547 5539 5533 5526 5516 5508 5501 5493 5483 5480 5476 5473 5470 5465 5460 5456 5451 5447 5444 5442 5439 5437
5634 5630 5623 5620 5616 5618 5613 5610 5606 5602 5597 5589 5586 5585 5581 5577 5571 5565 5557 5549 5543 5536 5527 5520 5512 5504 5494 5487 5481 5473 5464 5457 5454 5457 5452 5448 5443 5436 5432 5428 5424 5421 5418
5638 5631 5627 5622 5619 5617 5614 5609 5604 5601 5592 5587 5583 5579 5572 5567 5561 5553 5545 5539 5531 5521 5514 5507 5500 5492 5482 5474 5469 5465 5458 5451 5442 5439 5439 5436 5430 5422 5414 5409 5404 5398 5392
5634 5628 5626 5621 5619 5617 5613 5607 5601 5595 5589 5583 5576 5569 5562 5554 5547 5541 5534 5524 5520 5511 5503 5497 5489 5480 5471 5463 5456 5451 5444 5437 5429 5421 5420 5416 5412 5406 5396 5387 5378 5371 5366
5631 5626 5623 5620 5616 5614 5610 5604 5598 5591 5583 5574 5567 5558 5551 5544 5537 5530 5523 5513 5505 5501 5492 5482 5474 5467 5458 5452 5446 5438 5430 5422 5415 5406 5398 5398 5391 5388 5378 5366 5355 5345 5339